Location: Unspecified
(0.0000°N, 0.0000°E)
Time: 01:21:09
(UTC+00:00)

S-56A Canister/Altair - Visible Passes

Search period start: 26 May 2019 00:00
Search period end: 05 June 2019 00:00
Orbit: 633 x 2499 km, 38.9° (Epoch: 24 May)

Date Brightness Start Highest point End Pass type
(mag) Time Alt. Az. Time Alt. Az. Time Alt. Az.
26 May 9.4 19:55:49 10° SSW 19:57:16 17° SSW 19:57:16 17° SSW visible
27 May 8.3 19:23:09 10° SSW 19:27:20 31° SSE 19:27:20 31° SSE visible
28 May 8.5 18:50:27 10° SSW 18:55:31 27° SE 18:57:34 21° ESE visible
29 May 11.3 05:22:11 10° N 05:30:51 26° NE 05:41:32 10° E visible
29 May 8.9 18:17:42 10° SSW 18:22:47 23° SSE 18:26:48 10° E visible
29 May 9.0 20:22:00 10° WSW 20:25:29 30° WNW 20:25:29 30° WNW visible
30 May 11.4 04:50:11 10° N 04:57:33 21° NE 05:06:33 10° E visible
30 May 8.1 19:48:51 10° WSW 19:54:15 49° NW 19:56:03 32° NNE visible
31 May 11.4 04:18:32 10° N 04:24:19 16° NE 04:31:10 10° ENE visible
31 May 7.8 19:15:43 10° SW 19:21:45 66° NW 19:26:20 10° NE visible
01 Jun 11.5 03:47:39 10° NNE 03:51:08 12° NE 03:54:59 10° ENE visible
01 Jun 7.7 18:42:32 10° SW 18:49:13 86° NW 18:54:02 10° NE visible
02 Jun 10.6 05:13:48 10° NNW 05:23:26 47° NE 05:36:39 10° ESE visible
02 Jun 10.5 20:19:29 10° NW 20:19:59 10° NW 20:20:30 10° NW visible
03 Jun 10.7 04:41:29 10° NNW 04:50:16 39° NE 05:02:22 10° ESE visible
03 Jun 10.2 19:44:17 10° W 19:47:24 15° NW 19:50:09 10° N visible
04 Jun 10.8 04:09:18 10° NNW 04:17:11 32° NE 04:27:57 10° ESE visible
04 Jun 10.1 19:10:15 10° W 19:14:50 21° NW 19:18:35 10° N visible
